GW5520 Weather Reports


Display with metric or nautical units.
time (UTC)temp
F
wind
direction
speed
MPH
gust
MPH
rain 1hr
in
rain 24hr
in
rain mn
in
humidity
%
barometer
mb
20260510190740 72 246 2.0 4.0 0.00 0.00 0.00 37
20260510190236 71 18 2.0 5.0 0.00 0.00 0.00 35
20260510185733 71 70 6.0 6.0 0.00 0.00 0.00 33
20260510185231 72 17 4.0 6.0 0.00 0.00 0.00 31
20260510184727 72 156 3.0 4.0 0.00 0.00 0.00 38
20260510184224 71 84 2.0 6.0 0.00 0.00 0.00 37
20260510183719 71 160 0.0 5.0 0.00 0.00 0.00 36
20260510183214 71 251 2.0 6.0 0.00 0.00 0.00 36
20260510182711 71 117 0.0 8.0 0.00 0.00 0.00 39
20260510182207 71 87 3.0 7.0 0.00 0.00 0.00 37
20260510181704 71 145 3.0 5.0 0.00 0.00 0.00 39
20260510181200 71 84 3.0 4.0 0.00 0.00 0.00 40
20260510180657 70 287 0.0 4.0 0.00 0.00 0.00 40
20260510180155 70 0 0.0 6.0 0.00 0.00 0.00 39
20260510175650 70 31 3.0 7.0 0.00 0.00 0.00 41
20260510175146 70 112 2.0 6.0 0.00 0.00 0.00 39
20260510174644 70 87 2.0 6.0 0.00 0.00 0.00 39
20260510174141 70 8 4.0 6.0 0.00 0.00 0.00 42
20260510173637 69 129 2.0 5.0 0.00 0.00 0.00 45
20260510173133 70 12 0.0 5.0 0.00 0.00 0.00 48
20260510172629 69 108 0.0 8.0 0.00 0.00 0.00 40
20260510172125 69 328 1.0 6.0 0.00 0.00 0.00 44
20260510171622 69 78 5.0 6.0 0.00 0.00 0.00 38
20260510171120 69 91 3.0 6.0 0.00 0.00 0.00 40
20260510170615 68 197 2.0 7.0 0.00 0.00 0.00 42
20260510170112 69 72 4.0 10.0 0.00 0.00 0.00 42
20260510165608 69 138 2.0 6.0 0.00 0.00 0.00 43
20260510165104 68 77 4.0 6.0 0.00 0.00 0.00 42
20260510164601 68 93 4.0 8.0 0.00 0.00 0.00 41
20260510164058 68 311 2.0 5.0 0.00 0.00 0.00 42
20260510163553 68 79 2.0 6.0 0.00 0.00 0.00 42
20260510163050 68 354 2.0 4.0 0.00 0.00 0.00 44
20260510162545 68 115 3.0 4.0 0.00 0.00 0.00 42
20260510162042 67 276 3.0 11.0 0.00 0.00 0.00 47
20260510161537 67 37 3.0 4.0 0.00 0.00 0.00 51
20260510161034 66 20 0.0 8.0 0.00 0.00 0.00 46
20260510160532 66 0 2.0 6.0 0.00 0.00 0.00 48
20260510160031 66 229 2.0 4.0 0.00 0.00 0.00 45
20260510155528 66 71 6.0 6.0 0.00 0.00 0.00 47
20260510155024 65 77 2.0 5.0 0.00 0.00 0.00 48
20260510154520 65 91 3.0 4.0 0.00 0.00 0.00 51
20260510154020 66 40 4.0 8.0 0.00 0.00 0.00 47
20260510153515 66 39 1.0 5.0 0.00 0.00 0.00 51
20260510153013 66 58 5.0 9.0 0.00 0.00 0.00 49
20260510152511 66 16 4.0 7.0 0.00 0.00 0.00 51
20260510152007 66 88 0.0 5.0 0.00 0.00 0.00 51
20260510151503 65 83 1.0 6.0 0.00 0.00 0.00 50
20260510151000 65 37 1.0 4.0 0.00 0.00 0.00 53
20260510150455 65 346 2.0 4.0 0.00 0.00 0.00 52
20260510145951 65 145 4.0 10.0 0.00 0.00 0.00 53
20260510145448 65 48 0.0 5.0 0.00 0.00 0.00 52
20260510144944 64 56 4.0 5.0 0.00 0.00 0.00 54
20260510144441 64 104 4.0 6.0 0.00 0.00 0.00 53
20260510143937 64 190 4.0 7.0 0.00 0.00 0.00 53
20260510143432 64 123 2.0 7.0 0.00 0.00 0.00 56
20260510142930 63 56 2.0 5.0 0.00 0.00 0.00 58
20260510142427 63 64 3.0 6.0 0.00 0.00 0.00 57
20260510141923 63 134 4.0 7.0 0.00 0.00 0.00 58
20260510141420 63 149 2.0 3.0 0.00 0.00 0.00 63
20260510140917 63 30 3.0 5.0 0.00 0.00 0.00 62
20260510140414 62 91 2.0 6.0 0.00 0.00 0.00 61
20260510135913 62 121 3.0 4.0 0.00 0.00 0.00 64
20260510135409 62 68 2.0 6.0 0.00 0.00 0.00 66
20260510134907 62 64 4.0 8.0 0.00 0.00 0.00 67
20260510134403 61 104 2.0 5.0 0.00 0.00 0.00 71
20260510133859 60 82 3.0 7.0 0.00 0.00 0.00 70
20260510133355 61 96 4.0 10.0 0.00 0.00 0.00 69
20260510132851 61 95 2.0 5.0 0.00 0.00 0.00 71
20260510132349 60 18 3.0 4.0 0.00 0.00 0.00 73
20260510131846 60 50 8.0 10.0 0.00 0.00 0.00 72
20260510131343 60 70 2.0 6.0 0.00 0.00 0.00 73
20260510130839 60 124 3.0 9.0 0.00 0.00 0.00 74
20260510130337 60 74 2.0 5.0 0.00 0.00 0.00 75
20260510125833 60 25 0.0 7.0 0.00 0.00 0.00 76
20260510125329 59 0 2.0 4.0 0.00 0.00 0.00 80
20260510124826 59 43 2.0 5.0 0.00 0.00 0.00 80
20260510124323 59 88 1.0 3.0 0.00 0.00 0.00 80
20260510123819 59 102 0.0 6.0 0.00 0.00 0.00 80
20260510123315 59 96 2.0 5.0 0.00 0.00 0.00 80
20260510122811 59 113 1.0 3.0 0.00 0.00 0.00 82
20260510122307 59 69 0.0 8.0 0.00 0.00 0.00 83
20260510121804 59 98 2.0 4.0 0.00 0.00 0.00 84
20260510121302 58 82 4.0 6.0 0.00 0.00 0.00 85
20260510120758 58 83 1.0 2.0 0.00 0.00 0.00 86
20260510120255 58 29 0.0 2.0 0.00 0.00 0.00 86
20260510115751 58 23 2.0 2.0 0.00 0.00 0.00 86
20260510115249 58 135 2.0 2.0 0.00 0.00 0.00 86
20260510114744 57 116 3.0 4.0 0.00 0.00 0.00 87
20260510114242 57 142 1.0 2.0 0.00 0.00 0.00 88
20260510113737 57 134 0.0 4.0 0.00 0.00 0.00 88
20260510113234 57 160 1.0 2.0 0.00 0.00 0.00 89
20260510112730 57 135 2.0 3.0 0.00 0.00 0.00 90
20260510112227 57 74 2.0 4.0 0.00 0.00 0.00 90
20260510111723 57 4 2.0 3.0 0.00 0.00 0.00 90
20260510111220 57 103 1.0 2.0 0.00 0.00 0.00 90
20260510110720 57 150 2.0 2.0 0.00 0.00 0.00 90
20260510110218 57 38 0.0 1.0 0.00 0.00 0.00 89
20260510105717 57 38 1.0 2.0 0.00 0.00 0.00 89
20260510105212 58 51 0.0 1.0 0.00 0.00 0.00 89
20260510104709 58 140 0.0 2.0 0.00 0.00 0.00 89
20260510104206 58 134 2.0 2.0 0.00 0.00 0.00 89
20260510103703 57 249 1.0 2.0 0.00 0.00 0.00 89
20260510103200 57 226 2.0 2.0 0.00 0.00 0.00 88
20260510102700 58 126 0.0 2.0 0.00 0.00 0.00 88
20260510102156 58 245 1.0 1.0 0.00 0.00 0.00 88
20260510101653 58 311 0.0 2.0 0.00 0.00 0.00 87
20260510101152 58 141 0.0 1.0 0.00 0.00 0.00 86
20260510100647 58 124 0.0 1.0 0.00 0.00 0.00 86
20260510100145 58 118 0.0 2.0 0.00 0.00 0.00 85
20260510095640 59 142 0.0 0.0 0.00 0.00 0.00 83
20260510095136 59 218 0.0 1.0 0.00 0.00 0.00 82
20260510094634 59 98 1.0 2.0 0.00 0.00 0.00 82
20260510094131 60 152 1.0 2.0 0.00 0.00 0.00 81
20260510093621 59 181 0.0 2.0 0.00 0.00 0.00 81
20260510093118 59 144 0.0 2.0 0.00 0.00 0.00 82
20260510092615 59 86 0.0 2.0 0.00 0.00 0.00 81
20260510092115 59 197 2.0 3.0 0.00 0.00 0.00 81
20260510091611 59 254 1.0 2.0 0.00 0.00 0.00 81
20260510091108 59 230 1.0 2.0 0.00 0.00 0.00 80
20260510090605 60 295 0.0 2.0 0.00 0.00 0.00 79
20260510090100 60 309 0.0 0.0 0.00 0.00 0.00 79
20260510085555 60 217 0.0 0.0 0.00 0.00 0.00 78
20260510085052 60 19 0.0 2.0 0.00 0.00 0.00 77
20260510084548 60 326 2.0 2.0 0.00 0.00 0.00 78
20260510084045 61 0 0.0 1.0 0.00 0.00 0.00 77
20260510083542 61 144 0.0 2.0 0.00 0.00 0.00 76
20260510083038 61 147 0.0 0.0 0.00 0.00 0.00 75
20260510082535 61 150 0.0 2.0 0.00 0.00 0.00 74
20260510082030 61 104 1.0 2.0 0.00 0.00 0.00 74
20260510081525 61 224 0.0 1.0 0.00 0.00 0.00 74
20260510081021 62 174 0.0 1.0 0.00 0.00 0.00 72
20260510080520 62 290 0.0 0.0 0.00 0.00 0.00 71
20260510080018 62 105 2.0 2.0 0.00 0.00 0.00 69
20260510075515 62 35 0.0 3.0 0.00 0.00 0.00 69
20260510075012 62 131 0.0 2.0 0.00 0.00 0.00 70
20260510074510 61 269 0.0 3.0 0.00 0.00 0.00 70
20260510074005 60 235 2.0 3.0 0.00 0.00 0.00 75
20260510073501 60 124 0.0 1.0 0.00 0.00 0.00 76
20260510072958 61 142 0.0 1.0 0.00 0.00 0.00 75
20260510072455 62 226 1.0 2.0 0.00 0.00 0.00 74
20260510071950 61 0 0.0 2.0 0.00 0.00 0.00 70
20260510071447 61 68 1.0 2.0 0.00 0.00 0.00 73
20260510070945 60 119 3.0 3.0 0.00 0.00 0.00 73
20260510070442 61 212 0.0 1.0 0.00 0.00 0.00 74
20260510065938 61 222 0.0 1.0 0.00 0.00 0.00 71
20260510065435 61 226 0.0 1.0 0.00 0.00 0.00 72
20260510064931 61 212 0.0 1.0 0.00 0.00 0.00 72
20260510064428 61 234 1.0 1.0 0.00 0.00 0.00 70
20260510063925 60 186 0.0 1.0 0.00 0.00 0.00 71
20260510063421 60 229 0.0 1.0 0.00 0.00 0.00 73
20260510062919 60 227 1.0 1.0 0.00 0.00 0.00 72
20260510062414 60 230 0.0 0.0 0.00 0.00 0.00 74
20260510061910 59 215 0.0 0.0 0.00 0.00 0.00 74
20260510061407 59 212 0.0 1.0 0.00 0.00 0.00 74
20260510060902 60 186 0.0 0.0 0.00 0.00 0.00 75
20260510060359 61 235 0.0 1.0 0.00 0.00 0.00 70
20260510055856 62 202 0.0 1.0 0.00 0.00 0.00 66
20260510055355 62 230 0.0 1.0 0.00 0.00 0.00 68
20260510054854 62 269 0.0 0.0 0.00 0.00 0.00 68
20260510054350 62 239 0.0 1.0 0.00 0.00 0.00 70
20260510053845 63 231 2.0 2.0 0.00 0.00 0.00 68
20260510053340 63 246 0.0 1.0 0.00 0.00 0.00 64
20260510052837 63 193 0.0 1.0 0.00 0.00 0.00 65
20260510052333 64 224 0.0 1.0 0.00 0.00 0.00 67
20260510051829 64 180 2.0 2.0 0.00 0.00 0.00 63
20260510051326 65 279 1.0 1.0 0.00 0.00 0.00 63
20260510050823 66 118 1.0 2.0 0.00 0.00 0.00 60
20260510050319 66 315 0.0 1.0 0.00 0.00 0.00 59
20260510045817 66 162 2.0 3.0 0.00 0.00 0.00 56
20260510045314 67 195 2.0 2.0 0.00 0.00 0.00 56
20260510044811 67 265 0.0 5.0 0.00 0.00 0.00 56
20260510044308 67 189 6.0 6.0 0.00 0.00 0.00 55
20260510043804 67 259 1.0 9.0 0.00 0.00 0.00 55
20260510043300 67 268 2.0 2.0 0.00 0.00 0.00 55
20260510042758 68 228 1.0 6.0 0.00 0.00 0.00 53
20260510042253 68 201 4.0 5.0 0.00 0.00 0.00 53
20260510041750 68 201 4.0 7.0 0.00 0.00 0.00 52
20260510041248 68 198 5.0 6.0 0.00 0.00 0.00 52
20260510040745 68 220 4.0 6.0 0.00 0.00 0.00 51
20260510040241 68 201 4.0 5.0 0.00 0.00 0.00 52
20260510035737 68 208 4.0 5.0 0.00 0.01 0.01 52
20260510035233 68 202 2.0 5.0 0.00 0.01 0.01 52
20260510034728 68 231 3.0 6.0 0.00 0.01 0.01 51
20260510034227 67 169 4.0 5.0 0.00 0.01 0.01 53
20260510033722 66 201 1.0 3.0 0.00 0.01 0.01 56
20260510033221 65 103 0.0 2.0 0.00 0.01 0.01 57
20260510032716 65 284 2.0 2.0 0.00 0.01 0.01 56
20260510032212 63 252 2.0 2.0 0.00 0.01 0.01 59
20260510031707 64 235 0.0 2.0 0.00 0.01 0.01 60
20260510031204 64 252 1.0 2.0 0.00 0.01 0.01 62
20260510030703 64 285 0.0 2.0 0.00 0.01 0.01 58
20260510030202 64 244 0.0 1.0 0.00 0.01 0.01 58
20260510025659 64 269 0.0 2.0 0.00 0.01 0.01 61
20260510025156 65 269 1.0 2.0 0.00 0.01 0.01 58
20260510024653 65 269 0.0 1.0 0.00 0.01 0.01 59
20260510024149 65 269 0.0 1.0 0.00 0.01 0.01 58
20260510023645 65 251 1.0 1.0 0.00 0.01 0.01 59
20260510023143 66 278 1.0 2.0 0.00 0.01 0.01 59
20260510022642 66 281 0.0 1.0 0.00 0.01 0.01 56
20260510022138 66 283 0.0 1.0 0.00 0.01 0.01 58
20260510021634 66 309 0.0 1.0 0.00 0.01 0.01 57
20260510021131 65 235 0.0 1.0 0.00 0.01 0.01 55
20260510020625 65 246 0.0 1.0 0.00 0.01 0.01 60
20260510020121 65 233 0.0 1.0 0.00 0.01 0.01 61
20260510015618 66 266 0.0 2.0 0.00 0.01 0.01 64
20260510015114 66 256 0.0 1.0 0.00 0.01 0.01 64
20260510014609 66 217 0.0 1.0 0.00 0.01 0.01 62
20260510014107 67 235 0.0 1.0 0.00 0.01 0.01 62
20260510013601 67 235 0.0 1.0 0.00 0.01 0.01 62
20260510013057 67 269 0.0 1.0 0.00 0.01 0.01 61
20260510012551 67 325 0.0 0.0 0.00 0.01 0.01 61
20260510012048 67 325 0.0 0.0 0.00 0.01 0.01 63
20260510011547 67 235 0.0 1.0 0.00 0.01 0.01 68
20260510011043 67 191 0.0 1.0 0.00 0.01 0.01 62
20260510010540 67 197 0.0 0.0 0.00 0.01 0.01 61
20260510010037 68 227 0.0 0.0 0.00 0.01 0.01 60
20260510005533 68 50 0.0 0.0 0.00 0.01 0.01 59
20260510005031 68 50 0.0 0.0 0.00 0.01 0.01 59
20260510004528 69 135 0.0 0.0 0.00 0.01 0.01 58
20260510004026 69 37 0.0 0.0 0.00 0.01 0.01 58
20260510003523 70 34 0.0 0.0 0.00 0.01 0.01 56
20260510003018 71 333 0.0 0.0 0.00 0.01 0.01 55
20260510002514 72 7 0.0 0.0 0.00 0.01 0.01 53
20260510002011 73 5 0.0 1.0 0.00 0.01 0.01 52
20260510001509 75 129 0.0 0.0 0.00 0.01 0.01 52
20260510001007 75 246 0.0 1.0 0.00 0.01 0.01 50
20260510000507 76 239 0.0 2.0 0.00 0.01 0.01 46
20260510000004 77 255 0.0 1.0 0.00 0.01 0.01 43
20260509235501 78 199 2.0 4.0 0.00 0.01 0.01 42
20260509234956 78 226 2.0 4.0 0.00 0.01 0.01 39
20260509234454 79 238 0.0 3.0 0.00 0.01 0.01 39
20260509233952 80 208 4.0 5.0 0.00 0.01 0.01 34
20260509233449 80 206 3.0 5.0 0.00 0.01 0.01 33
20260509232944 82 200 4.0 7.0 0.00 0.01 0.01 31
20260509232443 83 307 0.0 4.0 0.00 0.01 0.01 35
20260509231938 82 206 2.0 4.0 0.00 0.01 0.01 32
20260509231435 82 185 0.0 2.0 0.00 0.01 0.01 32
20260509230933 83 185 2.0 6.0 0.00 0.01 0.01 32
20260509230430 84 281 2.0 4.0 0.00 0.01 0.01 34
20260509225926 84 249 1.0 2.0 0.00 0.01 0.01 34
20260509225422 82 326 3.0 4.0 0.00 0.01 0.01 30
20260509224919 82 216 5.0 8.0 0.00 0.01 0.01 31
20260509224414 83 216 2.0 4.0 0.00 0.01 0.01 33
20260509223912 83 239 3.0 4.0 0.00 0.01 0.01 34
20260509223408 82 320 1.0 8.0 0.00 0.01 0.01 36
20260509222905 83 257 2.0 6.0 0.00 0.01 0.01 34
20260509222401 82 190 4.0 5.0 0.00 0.01 0.01 32
20260509221856 83 196 4.0 7.0 0.00 0.01 0.01 32
20260509221353 84 183 2.0 2.0 0.00 0.01 0.01 29
20260509220849 83 173 3.0 3.0 0.00 0.01 0.01 33
20260509220345 83 174 2.0 4.0 0.00 0.01 0.01 32
20260509215840 82 318 2.0 6.0 0.00 0.01 0.01 30
20260509215337 84 351 2.0 7.0 0.00 0.01 0.01 32
20260509214834 84 301 1.0 4.0 0.00 0.01 0.01 31
20260509214331 83 252 2.0 3.0 0.00 0.01 0.01 31
20260509213829 83 284 3.0 5.0 0.00 0.01 0.01 29
20260509213323 83 260 2.0 6.0 0.00 0.01 0.01 36
20260509212821 83 247 3.0 6.0 0.00 0.01 0.01 31
20260509212319 83 302 4.0 6.0 0.00 0.01 0.01 29
20260509211814 82 61 1.0 4.0 0.00 0.01 0.01 30
20260509211310 82 327 7.0 7.0 0.00 0.01 0.01 29
20260509210807 83 195 5.0 5.0 0.00 0.01 0.01 33
20260509210305 81 257 2.0 4.0 0.00 0.01 0.01 35
20260509205804 81 195 5.0 8.0 0.00 0.01 0.01 31
20260509205300 83 245 1.0 10.0 0.00 0.01 0.01 31
20260509204756 83 196 4.0 5.0 0.00 0.01 0.01 35
20260509204252 84 258 3.0 6.0 0.00 0.01 0.01 30
20260509203748 83 231 5.0 6.0 0.00 0.01 0.01 30
20260509203246 81 212 4.0 6.0 0.00 0.01 0.01 33
20260509202742 81 213 2.0 6.0 0.00 0.01 0.01 33
20260509202238 82 174 3.0 8.0 0.00 0.01 0.01 33
20260509201732 83 310 3.0 6.0 0.00 0.01 0.01 35
20260509201229 82 205 4.0 8.0 0.00 0.01 0.01 34
20260509200726 82 220 5.0 6.0 0.00 0.01 0.01 35
20260509200221 82 276 3.0 6.0 0.00 0.01 0.01 38
20260509195718 82 296 2.0 5.0 0.00 0.01 0.01 35
20260509195213 81 304 2.0 7.0 0.00 0.01 0.01 34
20260509194712 82 251 2.0 5.0 0.00 0.01 0.01 33
20260509194209 81 281 4.0 10.0 0.00 0.01 0.01 33
20260509193706 82 274 4.0 6.0 0.00 0.01 0.01 37
20260509193201 82 207 3.0 6.0 0.00 0.01 0.01 35
20260509192657 81 190 3.0 6.0 0.00 0.01 0.01 38
20260509192158 81 182 5.0 5.0 0.00 0.01 0.01 36
20260509191653 81 255 2.0 5.0 0.00 0.01 0.01 35